Location: Aytr�
(46.1357°N, 1.1145°W)
Time: 05:12:54
(UTC+00:00)

USA 307 - Pass Details

Date: 03 March 2021
Orbit: 567 x 577 km, 54.0° (Epoch: 16 April)

Event Time Altitude Azimuth Distance (km) Brightness Sun altitude
Rises 19:55:15 0° 293° (WNW) 2,785 7.9 -21.7°
Reaches altitude 10° 19:57:45 10° 305° (NW) 1,884 6.5 -22.1°
Maximum altitude 20:01:31 29° 6° (N) 1,068 4.3 -22.8°
Enters shadow 20:02:01 28° 20° (NNE) 1,088 4.2 -22.8°
